This is the latest recevied weather packets stored in our database for station/object NC4M. If no packets are shown the sender has not sent any weather packets the latest 10 day(s).
| Time | Temp. | Humidity | Pressure | Rain* | Wind** | Luminosity | Snow |
|---|---|---|---|---|---|---|---|
| 1777541340 | 5.56° C | 88% | 1018.9 hPa | 0 mm | - | 0 W/m² | - |
| 1777541041 | 5.56° C | 87% | 1019 hPa | 0 mm | - | 0 W/m² | - |
| 1777540738 | 5.56° C | 87% | 1018.9 hPa | 0 mm | - | 0 W/m² | - |
| 1777540436 | 5.56° C | 87% | 1018.9 hPa | 0 mm | - | 0 W/m² | - |
| 1777540132 | 5.56° C | 87% | 1019.1 hPa | 0 mm | - | 0 W/m² | - |
| 1777539827 | 5.56° C | 87% | 1019 hPa | 0 mm | - | 0 W/m² | - |
| 1777539524 | 6.11° C | 85% | 1018.9 hPa | 0 mm | - | 0 W/m² | - |
| 1777539220 | 6.11° C | 86% | 1018.8 hPa | 0 mm | - | 0 W/m² | - |
| 1777538917 | 6.11° C | 84% | 1018.7 hPa | 0 mm | - | 0 W/m² | - |
| 1777538612 | 6.11° C | 85% | 1018.9 hPa | 0 mm | - | 0 W/m² | - |
| 1777538308 | 6.11° C | 85% | 1018.8 hPa | 0 mm | - | 0 W/m² | - |
| 1777538004 | 6.11° C | 85% | 1018.9 hPa | 0 mm | - | 0 W/m² | - |
| 1777537700 | 6.67° C | 86% | 1018.9 hPa | 0 mm | - | 0 W/m² | - |
| 1777537396 | 6.67° C | 87% | 1018.8 hPa | 0 mm | - | 0 W/m² | - |
| 1777537092 | 6.67° C | 86% | 1018.7 hPa | 0 mm | - | 0 W/m² | - |
| 1777536789 | 6.67° C | 85% | 1018.5 hPa | 0 mm | - | 0 W/m² | - |
| 1777536487 | 6.67° C | 85% | 1018.5 hPa | 0 mm | - | 0 W/m² | - |
| 1777536183 | 6.67° C | 82% | 1018.5 hPa | 0 mm | - | 0 W/m² | - |
| 1777535879 | 7.22° C | 84% | 1018.6 hPa | 0 mm | - | 0 W/m² | - |
| 1777535575 | 7.22° C | 83% | 1018.8 hPa | 0 mm | - | 0 W/m² | - |
| 1777535272 | 6.67° C | 80% | 1018.7 hPa | 0 mm | - | 0 W/m² | - |
| 1777534969 | 6.67° C | 84% | 1018.6 hPa | 0 mm | - | 0 W/m² | - |
| 1777534666 | 6.67° C | 87% | 1018.7 hPa | 0 mm | - | 0 W/m² | - |
| 1777534363 | 6.67° C | 87% | 1018.6 hPa | 0 mm | - | 0 W/m² | - |
| 1777534061 | 6.67° C | 86% | 1018.8 hPa | 0 mm | - | 0 W/m² | - |
* Rain latest hour (hover to see other rain measurements)
** Current wind speed in m/s (hover to see current wind gust speed)